Regional Weather Roundup
Issued by NWS

Home | Current Version | Previous Version | Graphics & Text | Print | Product List | Glossary On
Versions: 1 2 3 4 5 6 7 8 9 10 11 12 13 14 15 16 17 18 19 20 21 22 23 24 25 26 27 28 29 30 31 32 33 34 35 36 37 38 39 40 41 42 43 44 45 46 47 48 49 50
662
ASUS45 KBOU 262110
RWRCO

WEATHER ROUNDUP FOR COLORADO
NATIONAL WEATHER SERVICE DENVER/BOULDER CO
300 PM MDT SAT MAY 26 2018

NOTE: "FAIR" INDICATES FEW OR NO CLOUDS BELOW 12000 FEET WITH NO
SIGNIFICANT WEATHER AND/OR OBSTRUCTIONS TO VISIBILITY.

COZ001>005-013-030-031-262200-
...NORTHWEST COLORADO...

CITY           SKY/WX    TMP DP  RH WIND       PRES   REMARKS
CRAIG          FAIR      86  24  10 SW15G29   29.89F
HAYDEN         FAIR      82  19   9 VRB3      29.93
MEEKER         LGT RAIN  85  11   6 S18G35    29.90F
RANGELY        FAIR      88  13   6 SW17G28   29.80F
RABBIT EARS PA FAIR      63  16  16 S6        30.24F
STEAMBOAT SPGS FAIR      82  22  11 S16       29.93F
WALDEN         FAIR      77  16  10 SW13G18   30.04F
$$

COZ006>008-011-262200-
...WEST CENTRAL VALLEYS...

CITY           SKY/WX    TMP DP  RH WIND       PRES   REMARKS
GRAND JUNCTION FAIR      93  15   6 S22G43    29.76F
MONTROSE       FAIR      87  12   6 S17G35    29.88F
EAGLE          FAIR      83   6   5 S21G35    29.94R
RIFLE          FAIR      90   4   4 S16G25    29.82F
DELTA          FAIR      94   9   4 S15G22    29.82F
NUCLA          FAIR      86  12   6 S28G37    29.92F
$$

COZ017>023-064>068-262200-
...SOUTHWEST COLORADO...

CITY           SKY/WX    TMP DP  RH WIND       PRES   REMARKS
DURANGO        FAIR      76  22  13 S10G20    30.04F
CORTEZ         FAIR      83  27  13 S28G35    29.95F
PAGOSA SPRINGS FAIR      74   2   6 S5        30.14F
TELLURIDE      FAIR      67  15  13 S12G32    30.18F
WOLF CREEK PAS CLOUDY    50  10  20 S12G28    30.46F
$$

COZ009-010-012-014-032>034-037-058>063-262200-
...CENTRAL COLORADO...

CITY           SKY/WX    TMP DP  RH WIND       PRES   REMARKS
ASPEN          FAIR      78   6   6 SE15G22   30.02F
BUENA VISTA    FAIR      74   4   6 SE14G28   30.10F
COPPER MTN     FAIR      59  -2   8 S16G28    30.38F
BERTHOUD PASS  FAIR      50  37  62 SE28G46   30.42F
COTTONWOOD PAS FAIR      72 -26   2 S13G21    30.26R
GUNNISON       FAIR      75   6   7 S17G26    30.05S
GRANBY         FAIR      77  15   9 S20G26    30.06S
KREMMLING      FAIR      88 -13   2 S18G31    29.98F
LEADVILLE      FAIR      65   4   9 S25G36    30.21F
MONARCH PASS   CLOUDY    54   5  14 MISG      30.52F
SALIDA         FAIR      78   2   5 SW17G26   30.14F
SUNLIGHT       FAIR      64  14  14 S12G22    30.27F
WILKERSON PASS FAIR      61   0   8 SW10G18   30.39S
$$

COZ069>075-262200-
...SAN LUIS VALLEY/SANGRE DE CRISTO MOUNTAINS...

CITY           SKY/WX    TMP DP  RH WIND       PRES   REMARKS
ALAMOSA        FAIR      80   7   6 SW23G32   30.09F
DEL NORTE      NOT AVBL
LA VETA PASS   FAIR      66  12  12 S17G33    30.40F
SAGUACHE       NOT AVBL
$$

COZ035-036-038>040-262200-
...NORTHERN COLORADO FRONT RANGE...

CITY           SKY/WX    TMP DP  RH WIND       PRES   REMARKS
DENVER INTL AP PTSUNNY   92  26   9 SE13G18   29.84F
AURORA         NOT AVBL
FRONT RANGE AP PTSUNNY   93  21   7 E16       29.87F
ERIE MUNI ARPT FAIR      89  31  12 NE8       29.88F
BOULDER MUN AP FAIR      82  43  24 N5        29.85F
CENTENNIAL     PTSUNNY   89  26  10 S18G29    29.87F
BROOMFIELD     PTSUNNY   88  30  12 N7        29.88F
FORT COLLINS   FAIR      87  42  20 E13       29.84F
LONGMONT       FAIR      91  34  13 N6        29.85F
$$

COZ041-046-047-076>085-087-088-262200-
...PIKES PEAK/PALMER DIVIDE AND SOUTHERN FOOTHILLS...

CITY           SKY/WX    TMP DP  RH WIND       PRES   REMARKS
COLO. SPRINGS  PTSUNNY   87  17   7 S14G23    29.96F
A. F. ACADEMY  NOT AVBL
SCHRIEVER AFB  NOT AVBL
CHEYENNE MTN   NOT AVBL
ELLICOTT         N/A    N/A N/A N/A S16G25    29.95F
FALCON         FAIR      83  15   8 S16G23    30.03S
FORT CARSON    NOT AVBL
LIMON          FAIR      89  24   9 S17G30    29.91S
MONUMENT HILL  FAIR      79  19  11 S22G29    30.03S
CANON CITY     SUNNY     93  10   4 SW10G23   29.88F
WALSENBURG     FAIR      90  18   7 W5        29.93F
TRINIDAD       FAIR      89  13   6 S22G35    29.94F
$$

COZ042>045-048>051-090-091-262200-
...NORTHEAST COLORADO...

CITY           SKY/WX    TMP DP  RH WIND       PRES   REMARKS
GREELEY ARPT   FAIR      87  51  28 NE8       29.82F
AKRON          FAIR      91  43  18 S21G29    29.84F
BURLINGTON     FAIR      92  43  18 S29G44    29.87F
WRAY           FAIR      93  36  13 S26G35    29.81F
YUMA           FAIR      90  43  19 SE28G35   29.82S
STERLING       FAIR      93  46  20 S13G18    29.77F
HOLYOKE        FAIR      99  37  12 S30G37    29.81F
FORT MORGAN    FAIR      93  39  15 S6        29.82F
$$

COZ086-089-092>099-262200-
...SOUTHEAST COLORADO...

CITY           SKY/WX    TMP DP  RH WIND       PRES   REMARKS
PUEBLO         FAIR      97  19   6 SE17G28   29.82F
LA JUNTA       FAIR      98  24   7 S12G17    29.82F
LAMAR          FAIR      97  33  10 S21G33    29.79F
SPRINGFIELD      N/A     93  33  12 S26G39    29.88F
$$




USA.gov is the U.S. government's official web portal to all federal, state and local government web resources and services.